| time (UTC) | temp F | wind direction | speed knots | gust knots | rain 1hr in | rain 24hr in | rain mn in | humidity % | barometer mb |
| 20260504050530 | 43 | 0 | 0.0 | 0.0 | 0.00 | 0.00 | 0.00 | 65 | 1014.9 |
| 20260504045530 | 44 | 0 | 0.0 | 1.7 | 0.00 | 0.00 | 0.00 | 62 | 1014.7 |
| 20260504045029 | 45 | 0 | 0.9 | 2.6 | 0.00 | 0.00 | 0.00 | 60 | 1014.8 |
| 20260504044549 | 45 | 103 | 1.7 | 2.6 | 0.00 | 0.00 | 0.00 | 58 | 1014.9 |
| 20260504044032 | 45 | 103 | 0.9 | 2.6 | 0.00 | 0.00 | 0.00 | 60 | 1014.9 |
| 20260504043531 | 44 | 0 | 0.0 | 0.0 | 0.00 | 0.00 | 0.00 | 60 | 1014.9 |
| 20260504043051 | 44 | 0 | 0.0 | 0.0 | 0.00 | 0.00 | 0.00 | 62 | 1014.9 |
| 20260504042530 | 44 | 0 | 0.0 | 0.0 | 0.00 | 0.00 | 0.00 | 62 | 1014.8 |
| 20260504042030 | 44 | 0 | 0.0 | 0.0 | 0.00 | 0.00 | 0.00 | 62 | 1014.8 |
| 20260504041545 | 45 | 0 | 0.0 | 0.0 | 0.00 | 0.00 | 0.00 | 61 | 1014.9 |
| 20260504041029 | 46 | 0 | 0.0 | 0.0 | 0.00 | 0.00 | 0.00 | 59 | 1014.9 |
| 20260504040530 | 46 | 0 | 0.0 | 2.6 | 0.00 | 0.00 | 0.00 | 58 | 1014.9 |
| 20260504040044 | 47 | 0 | 1.7 | 2.6 | 0.00 | 0.00 | 0.00 | 57 | 1014.9 |
| 20260504035530 | 47 | 91 | 0.9 | 1.7 | 0.00 | 0.00 | 0.00 | 53 | 1015.0 |
| 20260504035030 | 47 | 105 | 1.7 | 2.6 | 0.00 | 0.00 | 0.00 | 54 | 1014.9 |
| 20260504034540 | 47 | 101 | 0.9 | 2.6 | 0.00 | 0.00 | 0.00 | 55 | 1015.0 |
| 20260504034033 | 47 | 113 | 0.9 | 2.6 | 0.00 | 0.00 | 0.00 | 54 | 1014.9 |
| 20260504033530 | 47 | 119 | 1.7 | 3.5 | 0.00 | 0.00 | 0.00 | 54 | 1014.9 |
| 20260504033054 | 47 | 126 | 0.9 | 3.5 | 0.00 | 0.00 | 0.00 | 55 | 1014.9 |
| 20260504032530 | 47 | 133 | 2.6 | 3.5 | 0.00 | 0.00 | 0.00 | 55 | 1014.9 |
| 20260504032033 | 47 | 115 | 0.9 | 2.6 | 0.00 | 0.00 | 0.00 | 56 | 1014.9 |
| 20260504031551 | 46 | 120 | 1.7 | 2.6 | 0.00 | 0.00 | 0.00 | 56 | 1014.9 |
| 20260504031032 | 46 | 147 | 1.7 | 1.7 | 0.00 | 0.00 | 0.00 | 56 | 1014.9 |
| 20260504030530 | 47 | 0 | 0.0 | 0.0 | 0.00 | 0.00 | 0.00 | 56 | 1014.9 |
| 20260504030045 | 47 | 0 | 0.0 | 0.0 | 0.00 | 0.00 | 0.00 | 55 | 1014.9 |
| 20260504025530 | 47 | 0 | 0.0 | 0.0 | 0.00 | 0.00 | 0.00 | 53 | 1014.7 |
| 20260504025029 | 48 | 0 | 0.0 | 0.0 | 0.00 | 0.00 | 0.00 | 52 | 1014.6 |
| 20260504024541 | 48 | 0 | 0.0 | 0.0 | 0.00 | 0.00 | 0.00 | 51 | 1014.5 |
| 20260504024032 | 47 | 0 | 0.0 | 0.0 | 0.00 | 0.00 | 0.00 | 51 | 1014.5 |
| 20260504023530 | 47 | 0 | 0.0 | 0.0 | 0.00 | 0.00 | 0.00 | 52 | 1014.5 |
| 20260504023041 | 47 | 0 | 0.0 | 0.0 | 0.00 | 0.00 | 0.00 | 53 | 1014.5 |
| 20260504022531 | 47 | 0 | 0.0 | 0.0 | 0.00 | 0.00 | 0.00 | 53 | 1014.4 |
| 20260504022030 | 47 | 0 | 0.0 | 0.0 | 0.00 | 0.00 | 0.00 | 52 | 1014.4 |
| 20260504021557 | 48 | 0 | 0.0 | 0.9 | 0.00 | 0.00 | 0.00 | 52 | 1014.4 |
| 20260504021029 | 49 | 0 | 0.0 | 0.9 | 0.00 | 0.00 | 0.00 | 51 | 1014.3 |
| 20260504020531 | 49 | 0 | 0.0 | 0.9 | 0.00 | 0.00 | 0.00 | 50 | 1014.4 |
| 20260504020046 | 48 | 127 | 0.0 | 0.0 | 0.00 | 0.00 | 0.00 | 51 | 1014.3 |
| 20260504015530 | 48 | 0 | 0.0 | 0.0 | 0.00 | 0.00 | 0.00 | 52 | 1014.3 |
| 20260504015036 | 48 | 0 | 0.0 | 0.0 | 0.00 | 0.00 | 0.00 | 52 | 1014.2 |
| 20260504014554 | 47 | 0 | 0.0 | 0.0 | 0.00 | 0.00 | 0.00 | 52 | 1014.2 |
| 20260504014032 | 47 | 0 | 0.0 | 0.0 | 0.00 | 0.00 | 0.00 | 52 | 1014.2 |
| 20260504013533 | 47 | 0 | 0.0 | 0.0 | 0.00 | 0.00 | 0.00 | 52 | 1014.2 |
| 20260504013043 | 47 | 0 | 0.0 | 0.0 | 0.00 | 0.00 | 0.00 | 52 | 1014.1 |
| 20260504012532 | 48 | 0 | 0.0 | 0.0 | 0.00 | 0.00 | 0.00 | 51 | 1014.1 |
| 20260504012030 | 48 | 0 | 0.0 | 0.0 | 0.00 | 0.00 | 0.00 | 51 | 1014.2 |
| 20260504011541 | 48 | 0 | 0.0 | 0.0 | 0.00 | 0.00 | 0.00 | 50 | 1014.0 |
| 20260504011030 | 48 | 0 | 0.0 | 0.0 | 0.00 | 0.00 | 0.00 | 51 | 1013.9 |
| 20260504010530 | 49 | 0 | 0.0 | 0.0 | 0.00 | 0.00 | 0.00 | 50 | 1014.0 |
| 20260504010057 | 49 | 0 | 0.0 | 0.0 | 0.00 | 0.00 | 0.00 | 50 | 1014.0 |
| 20260504005533 | 50 | 0 | 0.0 | 0.0 | 0.00 | 0.00 | 0.00 | 47 | 1014.1 |
| 20260504005033 | 50 | 0 | 0.0 | 0.0 | 0.00 | 0.00 | 0.00 | 46 | 1014.0 |
| 20260504004543 | 51 | 0 | 0.0 | 0.0 | 0.00 | 0.00 | 0.00 | 45 | 1014.0 |
| 20260504004029 | 52 | 0 | 0.0 | 0.0 | 0.00 | 0.00 | 0.00 | 45 | 1014.0 |
| 20260504003530 | 52 | 0 | 0.0 | 0.0 | 0.00 | 0.00 | 0.00 | 44 | 1013.9 |
| 20260504003044 | 52 | 0 | 0.0 | 0.0 | 0.00 | 0.00 | 0.00 | 44 | 1013.8 |
| 20260504002529 | 53 | 0 | 0.0 | 0.0 | 0.00 | 0.00 | 0.00 | 44 | 1013.8 |
| 20260504002029 | 54 | 0 | 0.0 | 0.0 | 0.00 | 0.00 | 0.00 | 44 | 1013.8 |
| 20260504001548 | 55 | 0 | 0.0 | 0.0 | 0.00 | 0.00 | 0.00 | 42 | 1013.8 |
| 20260504001029 | 55 | 0 | 0.0 | 2.6 | 0.00 | 0.00 | 0.00 | 40 | 1013.7 |
| 20260504000529 | 55 | 0 | 0.0 | 2.6 | 0.00 | 0.00 | 0.00 | 40 | 1013.7 |
| 20260504000045 | 56 | 0 | 0.9 | 2.6 | 0.00 | 0.00 | 0.00 | 40 | 1013.6 |
| 20260503235530 | 56 | 295 | 0.0 | 4.3 | 0.00 | 0.00 | 0.00 | 39 | 1013.6 |
| 20260503235031 | 57 | 296 | 1.7 | 4.3 | 0.00 | 0.00 | 0.00 | 39 | 1013.7 |
| 20260503234548 | 57 | 283 | 1.7 | 4.3 | 0.00 | 0.00 | 0.00 | 39 | 1013.7 |
| 20260503234030 | 57 | 284 | 3.5 | 4.3 | 0.00 | 0.00 | 0.00 | 38 | 1013.6 |
| 20260503233529 | 58 | 295 | 2.6 | 5.2 | 0.00 | 0.00 | 0.00 | 37 | 1013.6 |
| 20260503233053 | 58 | 283 | 1.7 | 6.1 | 0.00 | 0.00 | 0.00 | 36 | 1013.6 |
| 20260503232529 | 58 | 279 | 3.5 | 7.0 | 0.00 | 0.00 | 0.00 | 36 | 1013.6 |
| 20260503232030 | 58 | 291 | 3.5 | 8.7 | 0.00 | 0.00 | 0.00 | 36 | 1013.6 |
| 20260503231548 | 58 | 293 | 5.2 | 8.7 | 0.00 | 0.00 | 0.00 | 36 | 1013.4 |
| 20260503231031 | 59 | 298 | 3.5 | 7.8 | 0.00 | 0.00 | 0.00 | 35 | 1013.5 |
| 20260503230533 | 59 | 304 | 2.6 | 9.6 | 0.00 | 0.00 | 0.00 | 37 | 1013.3 |
| 20260503230045 | 59 | 297 | 5.2 | 12.2 | 0.00 | 0.00 | 0.00 | 36 | 1013.3 |
| 20260503225530 | 59 | 288 | 5.2 | 12.2 | 0.00 | 0.00 | 0.00 | 35 | 1013.3 |
| 20260503225030 | 59 | 305 | 5.2 | 10.4 | 0.00 | 0.00 | 0.00 | 36 | 1013.3 |
| 20260503224543 | 59 | 322 | 3.5 | 7.8 | 0.00 | 0.00 | 0.00 | 35 | 1013.3 |
| 20260503224032 | 59 | 288 | 3.5 | 10.4 | 0.00 | 0.00 | 0.00 | 35 | 1013.3 |
| 20260503223529 | 59 | 276 | 4.3 | 14.8 | 0.00 | 0.00 | 0.00 | 34 | 1013.3 |
| 20260503223041 | 59 | 260 | 5.2 | 14.8 | 0.00 | 0.00 | 0.00 | 34 | 1013.4 |
| 20260503222529 | 59 | 232 | 7.8 | 14.8 | 0.00 | 0.00 | 0.00 | 34 | 1013.4 |
| 20260503222030 | 59 | 304 | 6.1 | 13.0 | 0.00 | 0.00 | 0.00 | 34 | 1013.5 |
| 20260503221556 | 59 | 240 | 3.5 | 11.3 | 0.00 | 0.00 | 0.00 | 34 | 1013.4 |
| 20260503221030 | 59 | 312 | 3.5 | 11.3 | 0.00 | 0.00 | 0.00 | 38 | 1013.5 |
| 20260503220530 | 59 | 269 | 6.1 | 11.3 | 0.00 | 0.00 | 0.00 | 34 | 1013.5 |
| 20260503220057 | 59 | 293 | 7.0 | 14.8 | 0.00 | 0.00 | 0.00 | 36 | 1013.5 |
| 20260503215531 | 60 | 245 | 6.1 | 14.8 | 0.00 | 0.00 | 0.00 | 34 | 1013.5 |
| 20260503215030 | 59 | 241 | 4.3 | 11.3 | 0.00 | 0.00 | 0.00 | 35 | 1013.5 |
| 20260503214540 | 59 | 314 | 5.2 | 8.7 | 0.00 | 0.00 | 0.00 | 38 | 1013.5 |
| 20260503214034 | 59 | 311 | 2.6 | 11.3 | 0.00 | 0.00 | 0.00 | 36 | 1013.5 |
| 20260503213529 | 59 | 299 | 5.2 | 13.9 | 0.00 | 0.00 | 0.00 | 37 | 1013.4 |
| 20260503213043 | 59 | 297 | 4.3 | 13.9 | 0.00 | 0.00 | 0.00 | 38 | 1013.5 |
| 20260503212531 | 59 | 295 | 9.6 | 13.9 | 0.00 | 0.00 | 0.00 | 35 | 1013.5 |
| 20260503212029 | 59 | 327 | 5.2 | 12.2 | 0.00 | 0.00 | 0.00 | 38 | 1013.5 |
| 20260503211542 | 59 | 291 | 5.2 | 14.8 | 0.00 | 0.00 | 0.00 | 38 | 1013.5 |
| 20260503211030 | 59 | 303 | 8.7 | 14.8 | 0.00 | 0.00 | 0.00 | 35 | 1013.4 |
| 20260503210531 | 59 | 298 | 2.6 | 11.3 | 0.00 | 0.00 | 0.00 | 39 | 1013.4 |
| 20260503210049 | 58 | 266 | 5.2 | 11.3 | 0.00 | 0.00 | 0.00 | 37 | 1013.4 |
| 20260503205533 | 58 | 241 | 5.2 | 12.2 | 0.00 | 0.00 | 0.00 | 36 | 1013.6 |
| 20260503205033 | 59 | 283 | 6.1 | 12.2 | 0.00 | 0.00 | 0.00 | 38 | 1013.5 |
| 20260503204558 | 59 | 254 | 6.1 | 11.3 | 0.00 | 0.00 | 0.00 | 36 | 1013.5 |
| 20260503204030 | 59 | 291 | 3.5 | 11.3 | 0.00 | 0.00 | 0.00 | 37 | 1013.5 |
| 20260503203529 | 59 | 300 | 5.2 | 13.0 | 0.00 | 0.00 | 0.00 | 36 | 1013.5 |
| 20260503203042 | 59 | 298 | 7.8 | 15.6 | 0.00 | 0.00 | 0.00 | 37 | 1013.6 |
| 20260503202529 | 59 | 309 | 8.7 | 15.6 | 0.00 | 0.00 | 0.00 | 39 | 1013.5 |
| 20260503202030 | 58 | 295 | 4.3 | 12.2 | 0.00 | 0.00 | 0.00 | 41 | 1013.6 |
| 20260503201541 | 58 | 293 | 7.0 | 12.2 | 0.00 | 0.00 | 0.00 | 38 | 1013.5 |
| 20260503201030 | 58 | 299 | 7.0 | 14.8 | 0.00 | 0.00 | 0.00 | 38 | 1013.6 |
| 20260503200530 | 58 | 279 | 7.8 | 14.8 | 0.00 | 0.00 | 0.00 | 36 | 1013.8 |
| 20260503200045 | 58 | 306 | 7.8 | 13.9 | 0.00 | 0.00 | 0.00 | 39 | 1013.7 |
| 20260503195530 | 57 | 263 | 7.0 | 13.9 | 0.00 | 0.00 | 0.00 | 36 | 1013.8 |
| 20260503195032 | 57 | 328 | 5.2 | 12.2 | 0.00 | 0.00 | 0.00 | 37 | 1013.8 |
| 20260503194601 | 57 | 316 | 5.2 | 12.2 | 0.00 | 0.00 | 0.00 | 39 | 1014.0 |
| 20260503194030 | 58 | 350 | 5.2 | 13.9 | 0.00 | 0.00 | 0.00 | 40 | 1013.9 |
| 20260503193532 | 58 | 295 | 7.0 | 14.8 | 0.00 | 0.00 | 0.00 | 40 | 1014.1 |
| 20260503193044 | 58 | 316 | 8.7 | 14.8 | 0.00 | 0.00 | 0.00 | 37 | 1014.1 |
| 20260503192531 | 58 | 266 | 5.2 | 11.3 | 0.00 | 0.00 | 0.00 | 37 | 1014.2 |
| 20260503192031 | 58 | 287 | 4.3 | 11.3 | 0.00 | 0.00 | 0.00 | 39 | 1014.2 |
| 20260503191544 | 58 | 283 | 7.0 | 10.4 | 0.00 | 0.00 | 0.00 | 41 | 1014.4 |
| 20260503191031 | 57 | 204 | 3.5 | 13.9 | 0.00 | 0.00 | 0.00 | 41 | 1014.4 |
| 20260503190531 | 57 | 314 | 7.0 | 13.9 | 0.00 | 0.00 | 0.00 | 37 | 1014.5 |
| 20260503190058 | 57 | 288 | 7.0 | 13.9 | 0.00 | 0.00 | 0.00 | 37 | 1014.4 |
| 20260503185532 | 56 | 290 | 5.2 | 12.2 | 0.00 | 0.00 | 0.00 | 45 | 1014.4 |
| 20260503185030 | 56 | 303 | 5.2 | 12.2 | 0.00 | 0.00 | 0.00 | 38 | 1014.4 |
| 20260503184551 | 56 | 319 | 6.1 | 12.2 | 0.00 | 0.00 | 0.00 | 37 | 1014.5 |
| 20260503184030 | 56 | 330 | 4.3 | 13.0 | 0.00 | 0.00 | 0.00 | 36 | 1014.8 |
| 20260503183532 | 56 | 337 | 5.2 | 13.0 | 0.00 | 0.00 | 0.00 | 38 | 1014.8 |
| 20260503183052 | 56 | 311 | 7.0 | 17.4 | 0.00 | 0.00 | 0.00 | 37 | 1014.8 |
| 20260503182531 | 56 | 337 | 8.7 | 17.4 | 0.00 | 0.00 | 0.00 | 34 | 1014.7 |
| 20260503182031 | 56 | 282 | 9.6 | 17.4 | 0.00 | 0.00 | 0.00 | 37 | 1015.1 |
| 20260503181546 | 56 | 336 | 6.1 | 11.3 | 0.00 | 0.00 | 0.00 | 40 | 1014.9 |
| 20260503181032 | 56 | 297 | 5.2 | 13.0 | 0.00 | 0.00 | 0.00 | 36 | 1014.9 |
| 20260503180530 | 55 | 300 | 8.7 | 13.0 | 0.00 | 0.00 | 0.00 | 36 | 1015.0 |
| 20260503180056 | 55 | 304 | 5.2 | 8.7 | 0.00 | 0.00 | 0.00 | 39 | 1014.9 |
| 20260503175532 | 55 | 323 | 5.2 | 13.9 | 0.00 | 0.00 | 0.00 | 36 | 1015.1 |
| 20260503175031 | 55 | 327 | 8.7 | 15.6 | 0.00 | 0.00 | 0.00 | 35 | 1015.2 |
| 20260503174552 | 55 | 305 | 7.8 | 19.1 | 0.00 | 0.00 | 0.00 | 39 | 1015.2 |
| 20260503174034 | 55 | 296 | 6.1 | 19.1 | 0.00 | 0.00 | 0.00 | 39 | 1015.1 |
| 20260503173533 | 55 | 314 | 7.8 | 13.9 | 0.00 | 0.00 | 0.00 | 38 | 1015.1 |
| 20260503173129 | 54 | 342 | 7.0 | 13.9 | 0.00 | 0.00 | 0.00 | 41 | 1015.1 |
| 20260503172529 | 54 | 296 | 6.1 | 12.2 | 0.00 | 0.00 | 0.00 | 40 | 1015.3 |
| 20260503172030 | 54 | 294 | 7.8 | 15.6 | 0.00 | 0.00 | 0.00 | 41 | 1015.3 |
| 20260503171547 | 54 | 274 | 6.1 | 15.6 | 0.00 | 0.00 | 0.00 | 46 | 1015.4 |
| 20260503171031 | 53 | 288 | 8.7 | 13.9 | 0.00 | 0.00 | 0.00 | 40 | 1015.4 |
| 20260503170530 | 53 | 289 | 7.8 | 14.8 | 0.00 | 0.00 | 0.00 | 48 | 1015.4 |
| 20260503150532 | 47 | 288 | 5.2 | 12.2 | 0.00 | 0.00 | 0.00 | 49 | 1016.6 |
| 20260503131034 | 44 | 280 | 5.2 | 13.0 | 0.00 | 0.00 | 0.00 | 62 | 1016.8 |
| 20260503130531 | 43 | 291 | 7.0 | 13.0 | 0.00 | 0.00 | 0.00 | 62 | 1016.8 |
| 20260503110530 | 37 | 283 | 3.5 | 6.1 | 0.00 | 0.00 | 0.00 | 75 | 1016.1 |
| 20260503081555 | 37 | 281 | 2.6 | 6.1 | 0.00 | 0.00 | 0.00 | 76 | 1014.6 |
| 20260503081031 | 37 | 266 | 2.6 | 6.1 | 0.00 | 0.00 | 0.00 | 76 | 1014.6 |
| 20260503080532 | 37 | 285 | 2.6 | 5.2 | 0.00 | 0.00 | 0.00 | 75 | 1014.6 |
| 20260503072528 | 38 | 293 | 2.6 | 9.6 | 0.00 | 0.00 | 0.00 | 74 | 1014.2 |
| 20260503072031 | 38 | 309 | 3.5 | 7.0 | 0.00 | 0.00 | 0.00 | 74 | 1014.2 |
| 20260503071542 | 39 | 285 | 4.3 | 7.0 | 0.00 | 0.00 | 0.00 | 74 | 1014.1 |
| 20260503071029 | 39 | 288 | 4.3 | 7.8 | 0.00 | 0.00 | 0.00 | 74 | 1014.0 |
| 20260503070534 | 39 | 298 | 3.5 | 7.8 | 0.00 | 0.00 | 0.00 | 75 | 1014.0 |